Find Starlink 11434

NORAD ID: 62420 Int'l Des: 2024-249 Owner: SPXS Country: US Constellation: starlink operational
LEOCIRCULAR

リアルタイム位置

3D地球を読み込み中...

Starlink 11434について

説明を読み込み中...

次回通過

Passes for default location (London). Set your location on the main map for personalized predictions.

高度履歴

Loading altitude history...

軌道要素

1 62420U 24249M 26124.23392565 .00162401 00000-0 12436-2 0 9997
2 62420 43.0026 193.0867 0001871 269.5339 90.5314 15.70857454 78215
Epoch: May 4, 2026 • Age: 12 hours

現在のステータス

高度 364.6 km
速度 7.69 km/s
衛星直下点 -33.95°S, 65.91°W
打ち上げ日 Dec 23, 2024
運用期間 1.3 years
タイプ internet

技術仕様

分類 Payload
質量 960.00 kg
乾燥質量 910.00 kg
総質量 960.00 kg
長さ 0.30 m
直径 4.10 m
スパン 29.00 m
形状 Box + pan
製造者 SPXS
バスタイプ Starlink V2MD
フェーズステータス In Orbit
所有者/国 SPXS/US

Most Searched